DW0999 Weather Reports


time (UTC)temp
C
wind
direction
speed
KPH
gust
KPH
rain 1hr
cm
rain 24hr
cm
rain mn
cm
humidity
%
barometer
mb
20200812001240 21 92 4.8 8.0 0.00 0.00 0.00 72 1016.8
20200811235741 21 72 0.0 0.0 0.00 0.00 0.00 73 1016.9
20200811234239 21 121 0.0 0.0 0.00 0.00 0.00 74 1017.3
20200811232740 21 135 0.0 0.0 0.00 0.00 0.00 73 1017.2
20200811231239 21 135 0.0 0.0 0.00 0.00 0.00 72 1017.0
20200811225738 22 92 0.0 0.0 0.00 0.00 0.00 71 1017.1
20200811224239 22 92 0.0 0.0 0.00 0.00 0.00 69 1017.1
20200811222740 22 92 0.0 0.0 0.00 0.00 0.00 69 1017.0
20200811221238 22 92 0.0 4.8 0.00 0.00 0.00 67 1016.8
20200811215737 22 83 1.6 8.0 0.00 0.00 0.00 67 1016.8
20200811214236 23 72 3.2 11.3 0.00 0.00 0.00 66 1017.1
20200811212736 23 72 4.8 14.5 0.00 0.00 0.00 65 1016.9
20200811211237 23 47 3.2 11.3 0.00 0.00 0.00 65 1016.9
20200811205735 23 54 8.0 16.1 0.00 0.00 0.00 64 1016.9
20200811204235 23 37 3.2 16.1 0.00 0.00 0.00 64 1016.9
20200811202735 24 63 6.4 20.9 0.00 0.00 0.00 63 1017.0
20200811201237 24 27 6.4 17.7 0.00 0.00 0.00 63 1017.0
20200811195734 25 44 9.7 24.1 0.00 0.00 0.00 62 1016.9
20200811194234 25 125 8.0 17.7 0.00 0.00 0.00 61 1016.6
20200811192733 25 54 6.4 14.5 0.00 0.00 0.00 61 1016.5
20200811191232 25 10 4.8 14.5 0.00 0.00 0.00 63 1016.2
20200811185732 25 353 4.8 9.7 0.00 0.00 0.00 63 1016.0
20200811184232 26 3 3.2 9.7 0.00 0.00 0.00 63 1015.9
20200811182732 27 340 6.4 11.3 0.00 0.00 0.00 61 1015.7
20200811181232 28 42 1.6 4.8 0.00 0.00 0.00 57 1015.5
20200811175731 28 42 0.0 6.4 0.00 0.00 0.00 55 1015.3
20200811174233 28 25 3.2 8.0 0.00 0.00 0.00 55 1015.4
20200811172731 29 51 3.2 9.7 0.00 0.00 0.00 54 1015.3
20200811171232 29 41 4.8 8.0 0.00 0.00 0.00 53 1015.3
20200811165731 30 41 3.2 9.7 0.00 0.00 0.00 50 1015.3
20200811164231 30 71 1.6 6.4 0.00 0.00 0.00 47 1015.4
20200811162733 30 99 3.2 8.0 0.00 0.00 0.00 46 1015.2
20200811161230 30 85 4.8 9.7 0.00 0.00 0.00 45 1015.0
20200811155730 30 94 3.2 14.5 0.00 0.00 0.00 45 1015.2
20200811154232 30 79 4.8 16.1 0.00 0.00 0.00 45 1015.5
20200811152729 30 106 6.4 9.7 0.00 0.00 0.00 45 1015.4
20200811151232 31 86 3.2 9.7 0.00 0.00 0.00 47 1015.2
20200811145729 31 65 4.8 16.1 0.00 0.00 0.00 46 1015.2
20200811144228 31 54 6.4 11.3 0.00 0.00 0.00 46 1015.5
20200811142728 31 109 3.2 14.5 0.00 0.00 0.00 48 1015.6
20200811141227 32 96 4.8 11.3 0.00 0.00 0.00 44 1015.8
20200811135726 31 41 4.8 11.3 0.00 0.00 0.00 48 1015.7
20200811134229 31 92 6.4 20.9 0.00 0.00 0.00 47 1015.8
20200811132726 31 25 4.8 14.5 0.00 0.00 0.00 49 1015.9
20200811131226 31 80 4.8 19.3 0.00 0.00 0.00 49 1016.1
20200811125725 31 92 4.8 14.5 0.00 0.00 0.00 49 1016.3
20200811124227 31 39 6.4 16.1 0.00 0.00 0.00 51 1016.2
20200811122726 31 56 6.4 14.5 0.00 0.00 0.00 53 1016.3
20200811121225 30 47 4.8 16.1 0.00 0.00 0.00 52 1016.7
20200811115724 30 47 4.8 16.1 0.00 0.00 0.00 54 1016.8
20200811114223 30 113 6.4 16.1 0.00 0.00 0.00 53 1016.9
20200811112725 29 125 1.6 9.7 0.00 0.00 0.00 54 1017.0
20200811111224 29 111 4.8 16.1 0.00 0.00 0.00 57 1017.1
20200811105723 28 73 6.4 11.3 0.00 0.00 0.00 58 1017.2
20200811104222 28 89 4.8 11.3 0.00 0.00 0.00 60 1017.1
20200811102721 28 32 3.2 11.3 0.00 0.00 0.00 60 1017.2
20200811101222 28 72 6.4 14.5 0.00 0.00 0.00 62 1017.3
20200811095721 27 21 1.6 9.7 0.00 0.00 0.00 64 1017.2
20200811094220 27 49 4.8 9.7 0.00 0.00 0.00 65 1017.1
20200811092720 26 118 3.2 11.3 0.00 0.00 0.00 64 1017.1
20200811091219 26 54 6.4 11.3 0.00 0.00 0.00 66 1017.1
20200811085721 26 114 4.8 11.3 0.00 0.00 0.00 66 1017.0
20200811084220 25 99 6.4 9.7 0.00 0.00 0.00 68 1017.0
20200811082719 25 166 4.8 11.3 0.00 0.00 0.00 68 1017.1
20200811081219 25 49 4.8 9.7 0.00 0.00 0.00 70 1017.0
20200811075718 24 87 3.2 8.0 0.00 0.00 0.00 71 1017.0
20200811074217 23 85 3.2 8.0 0.00 0.00 0.00 75 1016.9
20200811072717 22 106 1.6 8.0 0.00 0.00 0.00 77 1016.8
20200811071217 21 89 3.2 6.4 0.00 0.00 0.00 80 1016.8
20200811065719 21 72 4.8 6.4 0.00 0.00 0.00 81 1016.8
20200811064219 20 102 3.2 6.4 0.00 0.00 0.00 83 1016.6
20200811062717 20 110 1.6 4.8 0.00 0.00 0.00 85 1016.7
20200811061215 19 111 3.2 4.8 0.00 0.00 0.00 86 1016.6
20200811055715 19 107 3.2 4.8 0.00 0.00 0.00 87 1016.6
20200811054215 18 111 3.2 4.8 0.00 0.00 0.00 89 1016.5
20200811052715 17 99 0.0 3.2 0.00 0.00 0.00 91 1016.3
20200811051216 17 99 0.0 0.0 0.00 0.00 0.00 91 1016.3
20200811045715 17 99 0.0 0.0 0.00 0.00 0.00 90 1016.1
20200811044215 17 99 0.0 0.0 0.00 0.00 0.00 90 1016.0
20200811042714 17 99 0.0 0.0 0.00 0.00 0.00 90 1016.1
20200811041212 17 99 0.0 0.0 0.00 0.00 0.00 89 1016.0
20200811035712 17 99 0.0 0.0 0.00 0.00 0.00 89 1015.9
20200811034214 17 99 0.0 0.0 0.00 0.00 0.00 89 1015.9
20200811032712 17 99 0.0 0.0 0.00 0.00 0.00 88 1015.8
20200811031211 17 99 0.0 0.0 0.00 0.00 0.00 88 1015.8
20200811025711 18 97 0.0 0.0 0.00 0.00 0.00 87 1015.6
20200811024212 18 99 0.0 0.0 0.00 0.00 0.00 87 1015.8
20200811022709 18 99 0.0 0.0 0.00 0.00 0.00 86 1015.7
20200811021211 18 99 0.0 0.0 0.00 0.00 0.00 86 1015.7
20200811015707 18 99 0.0 3.2 0.00 0.00 0.00 85 1015.7
20200811014210 19 99 0.0 3.2 0.00 0.00 0.00 85 1015.7
20200811012707 19 97 1.6 3.2 0.00 0.00 0.00 84 1015.7
20200811011206 19 97 0.0 0.0 0.00 0.00 0.00 84 1015.6
20200811005707 19 97 0.0 0.0 0.00 0.00 0.00 84 1015.5
20200811004209 19 99 0.0 0.0 0.00 0.00 0.00 83 1015.6